"Pseudo-MPEC" for P10MApI

Created 2019 Apr 23 0:07:03 UT using Find_Orb

Click here for an explanation of pseudo-MPECs

 
 Astrometry: 
     P10MApI  C2019 04 03ydNJ2Y$sREQplZ5B$@)seHSndOreO\:y]L3;ye;P5-d$PBD3pc5pF51
     P10MApI  C2019 04 03]\33TR7FoNL(iLG^V\lAstrometryA`v=_/3HxQs5h`B8Y_4a1pQF51
     P10MApI  C2019 04 0375n[i;W,@@KO.m506N)Igq1Rgj++8`g[Uxg/?a17gaEZP0p$9tE0F51
     P10MApI  C2019 04 03+RQ!v7,4Qso,L6;kR\?A\SrlJP_xPI](^$kj8BaNDQCi)JKHE-qSF51
     P10MApI KC2019 04 04Hl$x;;Zpy^aCP^;k2redacted;_B0NLZTNY;PQo0S;h+1)e[(#BSK61
     P10MApI KC2019 04 04uxm5click@#cF7quJ3K!\6Tw$9b.$Cj'@J4F2m[-JxS;pNf)TA?jK61
     P10MApI KC2019 04 04PniYVnGOBqCqPherejR7;Qk0!sv^Mr#qHsf7Rv_UC5wo-@@]1su$K61
     P10MApI KC2019 04 04@6%9forg=A_@8-9$xlU8!x'xG4shq^;Fsexplanation@TRZuoUZK61

Station data:
(F51) Pan-STARRS 1, Haleakala  (N20.707235 W156.255910)  US/Hawaii.
   Observers N. Primak, A. Schultz, S. Watters, J. Thiel, T. Goggia. Measurer
   PS1 Science Consortium. 1.8-m Ritchey-Chrétien + CCD.
(K61) Rokycany Observatory  (N49.751403 E13.602600)  Czech Republic.

Orbital elements:  P10MApI
   Perihelion 2019 Jun 3.229766 +/- 0.515 TT =  5:30:51 (JD 2458637.729766)
Epoch 2019 Apr  4.0 TT = JDT 2458577.5   Earth MOID: 0.0217   AutoNEOCP
M 319.22771903 +/- 1.1              (J2000 ecliptic)
n   0.67694569 +/- 0.0135           Peri.  275.16631 +/- 0.55
a   1.28459677 +/- 0.017            Node    15.06751 +/- 0.016
e   0.4813737 +/- 0.00817           Incl.   30.06246 +/- 0.42
P   1.46/531.79d           H 24.8   G  0.15   U  9.8  
q 0.66622558 +/- 0.00341    Q 1.90296797 +/- 0.035
From 8 observations 2019 Apr. 3-4 (11.4 hr); mean residual 0".25
Residuals in arcseconds: 
190403 F51  .04+  .02+    190403 F51  .08+  .20-    190404 K61  .01+  .33-    
190403 F51  .03-  .06-    190404 K61  .15+  .52+    190404 K61  .23-  .54-    
190403 F51  .09-  .22+    190404 K61  .07+  .36+    

Ephemerides (geocentric):
Date (UTC) HH   RA              Dec         delta   r     elong  mag " sig PA
---- -- -- --  -------------   -----------  ------ ------ -----  --- ---- ---
2019 04 23 00  02 57 15.520   -32 44 57.78  .21012 .87561  47.0 26?? 95.4 177
2019 04 23 01  02 57 15.073   -32 43 30.45  .21064 .87527  47.0 26?? 95.4 177
2019 04 23 02  02 57 14.623   -32 42 03.37  .21116 .87494  47.0 26?? 95.3 177
2019 04 23 03  02 57 14.171   -32 40 36.54  .21168 .87460  47.0 26?? 95.3 177
2019 04 23 04  02 57 13.717   -32 39 09.96  .21220 .87427  46.9 26?? 95.3 177
2019 04 23 05  02 57 13.260   -32 37 43.63  .21272 .87393  46.9 26?? 95.3 176
2019 04 23 06  02 57 12.802   -32 36 17.53  .21324 .87360  46.9 26?? 95.3 176
2019 04 23 07  02 57 12.341   -32 34 51.68  .21376 .87326  46.9 26?? 95.3 176
2019 04 23 08  02 57 11.878   -32 33 26.06  .21428 .87293  46.9 26?? 95.2 176
2019 04 23 09  02 57 11.413   -32 32 00.68  .21481 .87259  46.8 26?? 95.2 176
2019 04 23 10  02 57 10.945   -32 30 35.53  .21533 .87226  46.8 26?? 95.2 176
2019 04 23 11  02 57 10.476   -32 29 10.61  .21585 .87192  46.8 26?? 95.2 176
2019 04 23 12  02 57 10.004   -32 27 45.92  .21637 .87159  46.8 26?? 95.2 176
2019 04 23 13  02 57 09.530   -32 26 21.46  .21689 .87126  46.8 26?? 95.2 176
2019 04 23 14  02 57 09.055   -32 24 57.22  .21741 .87092  46.7 26?? 95.2 176
2019 04 23 15  02 57 08.577   -32 23 33.20  .21793 .87059  46.7 26?? 95.2 176
2019 04 23 16  02 57 08.097   -32 22 09.40  .21845 .87025  46.7 26?? 95.2 176
2019 04 23 17  02 57 07.615   -32 20 45.82  .21897 .86992  46.7 26?? 95.1 176
2019 04 23 18  02 57 07.131   -32 19 22.46  .21949 .86959  46.7 26?? 95.1 176
2019 04 23 19  02 57 06.646   -32 17 59.31  .22002 .86925  46.6 26?? 95.1 176
2019 04 23 20  02 57 06.158   -32 16 36.37  .22054 .86892  46.6 26?? 95.1 176
2019 04 23 21  02 57 05.668   -32 15 13.64  .22106 .86859  46.6 26?? 95.1 176
2019 04 23 22  02 57 05.176   -32 13 51.11  .22158 .86825  46.6 26?? 95.1 176
2019 04 23 23  02 57 04.683   -32 12 28.80  .22210 .86792  46.6 26?? 95.1 176
2019 04 24 00  02 57 04.187   -32 11 06.68  .22262 .86759  46.5 26?? 95.1 176
2019 04 24 01  02 57 03.690   -32 09 44.77  .22314 .86725  46.5 26?? 95.1 176
2019 04 24 02  02 57 03.190   -32 08 23.06  .22367 .86692  46.5 26?? 95.1 176
2019 04 24 03  02 57 02.689   -32 07 01.54  .22419 .86659  46.5 26?? 95.1 176
2019 04 24 04  02 57 02.186   -32 05 40.22  .22471 .86626  46.5 26?? 95.1 176
2019 04 24 05  02 57 01.681   -32 04 19.09  .22523 .86592  46.4 26?? 95.1 176
2019 04 24 06  02 57 01.175   -32 02 58.16  .22575 .86559  46.4 26?? 95.1 176
2019 04 24 07  02 57 00.666   -32 01 37.42  .22627 .86526  46.4 26?? 95.1 176
2019 04 24 08  02 57 00.156   -32 00 16.86  .22680 .86493  46.4 26?? 95.1 176
2019 04 24 09  02 56 59.644   -31 58 56.49  .22732 .86459  46.4 26?? 95.1 176
2019 04 24 10  02 56 59.130   -31 57 36.30  .22784 .86426  46.4 26?? 95.1 176
2019 04 24 11  02 56 58.615   -31 56 16.30  .22836 .86393  46.3 26?? 95.1 176
2019 04 24 12  02 56 58.098   -31 54 56.48  .22889 .86360  46.3 26?? 95.1 176
2019 04 24 13  02 56 57.579   -31 53 36.84  .22941 .86327  46.3 26?? 95.1 176
2019 04 24 14  02 56 57.058   -31 52 17.37  .22993 .86294  46.3 26?? 95.1 176
2019 04 24 15  02 56 56.536   -31 50 58.08  .23045 .86260  46.3 26?? 95.1 176
2019 04 24 16  02 56 56.012   -31 49 38.97  .23097 .86227  46.2 26?? 95.1 176
2019 04 24 17  02 56 55.486   -31 48 20.03  .23150 .86194  46.2 26?? 95.1 176
2019 04 24 18  02 56 54.959   -31 47 01.25  .23202 .86161  46.2 26?? 95.1 176
2019 04 24 19  02 56 54.430   -31 45 42.65  .23254 .86128  46.2 26?? 95.1 176
2019 04 24 20  02 56 53.899   -31 44 24.21  .23306 .86095  46.2 26?? 95.1 176
2019 04 24 21  02 56 53.367   -31 43 05.94  .23359 .86062  46.2 26?? 95.1 176
2019 04 24 22  02 56 52.834   -31 41 47.83  .23411 .86029  46.1 26?? 95.1 176
2019 04 24 23  02 56 52.298   -31 40 29.89  .23463 .85995  46.1 26?? 95.1 176